KI4MRC-13 Weather Reports


time (UTC)temp
F
wind
direction
speed
knots
gust
knots
rain 1hr
in
rain 24hr
in
rain mn
in
humidity
%
barometer
mb
20260904184500 99 0 0.0 1.7 0.00 0.00 0.00 57 1015.2
20260904183955 100 221 1.7 2.6 0.00 0.00 0.00 58 1015.4
20260904183450 98 0 0.9 5.2 0.00 0.00 0.00 61 1015.3
20260904182946 99 99 2.6 2.6 0.00 0.00 0.00 61 1015.3
20260904182442 99 130 1.7 1.7 0.00 0.00 0.00 64 1015.2
20260904181941 99 22 1.7 2.6 0.00 0.00 0.00 61 1015.3
20260904181437 98 122 1.7 3.5 0.00 0.00 0.00 64 1015.1
20260904180931 98 353 1.7 4.3 0.00 0.00 0.00 63 1015.3
20260904180427 98 102 0.0 2.6 0.00 0.00 0.00 62 1015.3
20260904175927 98 339 0.9 2.6 0.00 0.00 0.00 62 1015.5
20260904175426 98 333 0.0 1.7 0.00 0.00 0.00 63 1015.7
20260904174926 98 133 1.7 1.7 0.00 0.00 0.00 66 1015.8
20260904174421 96 85 1.7 3.5 0.00 0.00 0.00 66 1015.6
20260904173917 96 19 1.7 2.6 0.00 0.00 0.00 65 1015.7
20260904173412 97 297 0.9 3.5 0.00 0.00 0.00 63 1015.8
20260904172908 97 148 2.6 5.2 0.00 0.00 0.00 66 1015.8
20260904172408 98 126 0.9 2.6 0.00 0.00 0.00 63 1016.0
20260904171903 97 110 1.7 2.6 0.00 0.00 0.00 65 1015.8
20260904171358 96 37 0.9 2.6 0.00 0.00 0.00 67 1015.9
20260904170854 96 312 1.7 2.6 0.00 0.00 0.00 66 1016.0
20260904170349 96 275 0.0 1.7 0.00 0.00 0.00 68 1016.3
20260904165844 96 345 0.9 1.7 0.00 0.00 0.00 67 1016.2
20260904165343 96 52 1.7 2.6 0.00 0.00 0.00 67 1016.2
20260904164839 96 41 0.0 1.7 0.00 0.00 0.00 67 1016.3
20260904164338 97 11 0.0 2.6 0.00 0.00 0.00 63 1016.5
20260904163835 96 61 0.9 3.5 0.00 0.00 0.00 66 1016.5
20260904163334 95 118 1.7 2.6 0.00 0.00 0.00 69 1016.4
20260904162834 94 33 0.9 1.7 0.00 0.00 0.00 71 1016.4
20260904162329 94 25 1.7 1.7 0.00 0.00 0.00 69 1016.3
20260904161825 94 347 1.7 1.7 0.00 0.00 0.00 70 1016.4
20260904161325 95 26 0.9 2.6 0.00 0.00 0.00 68 1016.6
20260904160820 96 76 1.7 1.7 0.00 0.00 0.00 69 1016.6
20260904160320 98 123 0.0 2.6 0.00 0.00 0.00 65 1016.6
20260904155815 98 93 0.0 1.7 0.00 0.00 0.00 67 1016.6
20260904155310 97 61 0.9 2.6 0.00 0.00 0.00 66 1016.6
20260904154809 97 60 0.0 4.3 0.00 0.00 0.00 66 1016.4
20260904154303 97 97 0.0 1.7 0.00 0.00 0.00 68 1016.4
20260904153759 95 129 1.7 2.6 0.00 0.00 0.00 71 1016.5
20260904153254 96 136 1.7 2.6 0.00 0.00 0.00 71 1016.4
20260904152751 96 73 1.7 3.5 0.00 0.00 0.00 73 1016.4
20260904152245 94 135 0.9 1.7 0.00 0.00 0.00 76 1016.7
20260904151740 92 73 0.0 3.5 0.00 0.00 0.00 78 1016.6
20260904151239 91 75 1.7 1.7 0.00 0.00 0.00 81 1016.6
20260904150736 92 114 0.9 2.6 0.00 0.00 0.00 79 1016.6
20260904150230 92 109 1.7 2.6 0.00 0.00 0.00 79 1016.6
20260904145729 91 133 1.7 1.7 0.00 0.00 0.00 83 1016.7
20260904145224 90 81 1.7 2.6 0.00 0.00 0.00 84 1016.5
20260904144719 90 89 0.0 1.7 0.00 0.00 0.00 83 1016.4
20260904144215 90 87 0.9 1.7 0.00 0.00 0.00 83 1016.2
20260904143710 90 109 0.9 0.9 0.00 0.00 0.00 82 1016.3
20260904143207 90 55 1.7 1.7 0.00 0.00 0.00 81 1016.3
20260904142704 91 15 0.0 0.9 0.00 0.00 0.00 78 1016.5
20260904142159 90 77 0.9 1.7 0.00 0.00 0.00 83 1016.3
20260904141653 89 84 0.9 1.7 0.00 0.00 0.00 86 1016.1
20260904141149 89 37 0.0 1.7 0.00 0.00 0.00 86 1016.2
20260904140645 89 44 1.7 1.7 0.00 0.00 0.00 87 1016.1
20260904140145 89 80 0.9 0.9 0.00 0.00 0.00 87 1016.1
20260904135644 89 52 1.7 1.7 0.00 0.00 0.00 85 1016.0
20260904135140 89 58 1.7 1.7 0.00 0.00 0.00 84 1016.0
20260904134635 90 72 1.7 1.7 0.00 0.00 0.00 83 1016.1
20260904134134 91 36 0.0 0.9 0.00 0.00 0.00 82 1016.1
20260904133630 92 257 0.0 3.5 0.00 0.00 0.00 82 1016.0
20260904133125 91 119 0.0 2.6 0.00 0.00 0.00 82 1016.0
20260904132620 92 65 1.7 1.7 0.00 0.00 0.00 81 1015.9
20260904132115 93 33 0.9 3.5 0.00 0.00 0.00 81 1015.8
20260904131615 92 61 0.9 1.7 0.00 0.00 0.00 80 1015.7
20260904131111 92 22 0.0 3.5 0.00 0.00 0.00 81 1015.7
20260904130610 91 141 0.0 1.7 0.00 0.00 0.00 83 1015.8
20260904130110 92 79 1.7 2.6 0.00 0.00 0.00 79 1015.6
20260904125607 91 72 1.7 1.7 0.00 0.00 0.00 84 1015.8
20260904125107 90 69 1.7 1.7 0.00 0.00 0.00 88 1015.7
20260904124602 88 47 2.6 2.6 0.00 0.00 0.00 98 1015.5
20260904124058 86 45 1.7 2.6 0.00 0.00 0.00 99 1015.6
20260904123557 84 104 0.0 2.6 0.00 0.00 0.00 99 1015.5
20260904123054 84 95 0.9 1.7 0.00 0.00 0.00 99 1015.5
20260904122554 83 116 0.0 1.7 0.00 0.00 0.00 99 1015.5
20260904122049 83 73 1.7 1.7 0.00 0.00 0.00 99 1015.7
20260904121544 83 84 0.0 1.7 0.00 0.00 0.00 99 1015.6
20260904121040 82 71 0.9 1.7 0.00 0.00 0.00 99 1015.5
20260904120536 82 41 0.0 1.7 0.00 0.00 0.00 99 1015.3
20260904120031 82 77 0.0 1.7 0.00 0.00 0.00 99 1015.4
20260904115527 82 65 1.7 1.7 0.00 0.00 0.00 99 1015.4
20260904115026 82 58 0.9 1.7 0.00 0.00 0.00 99 1015.2
20260904114522 81 79 0.9 1.7 0.00 0.00 0.00 99 1015.0
20260904114021 81 76 0.9 1.7 0.00 0.00 0.00 99 1015.1
20260904113516 81 75 1.7 1.7 0.00 0.00 0.00 99 1015.0
20260904113015 81 69 1.7 1.7 0.00 0.00 0.00 99 1015.1
20260904112511 81 88 1.7 1.7 0.00 0.00 0.00 99 1015.0
20260904112007 81 76 0.9 1.7 0.00 0.00 0.00 99 1015.1
20260904111503 81 100 0.9 1.7 0.00 0.00 0.00 99 1015.2
20260904110958 81 68 0.9 1.7 0.00 0.00 0.00 99 1015.2
20260904110457 81 71 0.9 1.7 0.00 0.00 0.00 99 1015.0
20260904105952 81 79 0.0 1.7 0.00 0.00 0.00 99 1014.8
20260904105452 81 64 1.7 1.7 0.00 0.00 0.00 99 1014.7
20260904104947 81 72 1.7 1.7 0.00 0.00 0.00 99 1014.6
20260904104442 81 89 0.9 1.7 0.00 0.00 0.00 99 1014.5
20260904103939 81 64 0.9 1.7 0.00 0.00 0.00 99 1014.6
20260904103434 81 72 1.7 1.7 0.00 0.00 0.00 99 1014.4
20260904102930 81 57 0.0 1.7 0.00 0.00 0.00 99 1014.5
20260904102425 81 80 0.9 1.7 0.00 0.00 0.00 99 1014.5
20260904101921 81 79 0.0 1.7 0.00 0.00 0.00 99 1014.4
20260904101418 81 86 0.9 1.7 0.00 0.00 0.00 99 1014.3
20260904100913 81 71 0.0 1.7 0.00 0.00 0.00 99 1014.6
20260904100409 81 69 0.9 1.7 0.00 0.00 0.00 99 1014.4
20260904095908 81 66 0.9 1.7 0.00 0.00 0.00 99 1014.3
20260904095403 81 60 0.9 1.7 0.00 0.00 0.00 99 1014.1
20260904094858 81 70 0.0 1.7 0.00 0.00 0.00 99 1014.0
20260904094354 81 73 0.9 1.7 0.00 0.00 0.00 99 1014.1
20260904093850 81 80 0.9 1.7 0.00 0.00 0.00 99 1014.0
20260904093349 81 83 0.9 1.7 0.00 0.00 0.00 99 1014.0
20260904092845 81 65 1.7 1.7 0.00 0.00 0.00 99 1014.0
20260904092342 81 93 1.7 1.7 0.00 0.00 0.00 99 1014.0
20260904091837 81 79 1.7 1.7 0.00 0.00 0.00 99 1014.1
20260904091333 82 77 0.9 1.7 0.00 0.00 0.00 99 1014.1
20260904090827 82 71 0.9 1.7 0.00 0.00 0.00 99 1013.9
20260904090324 82 68 1.7 1.7 0.00 0.00 0.00 99 1013.9
20260904085818 82 74 0.9 1.7 0.00 0.00 0.00 99 1014.0
20260904085314 82 78 1.7 1.7 0.00 0.00 0.00 99 1013.8
20260904084808 82 75 1.7 1.7 0.00 0.00 0.00 99 1013.8
20260904084304 82 89 0.9 1.7 0.00 0.00 0.00 99 1013.8
20260904083800 82 67 0.0 1.7 0.00 0.00 0.00 99 1013.9
20260904083257 82 70 0.0 1.7 0.00 0.00 0.00 99 1013.7
20260904082757 81 74 0.9 1.7 0.00 0.00 0.00 99 1013.6
20260904082251 81 83 1.7 2.6 0.00 0.00 0.00 99 1013.9
20260904081747 81 61 0.9 1.7 0.00 0.00 0.00 99 1013.5
20260904081242 81 98 0.9 1.7 0.00 0.00 0.00 99 1013.6
20260904080737 82 65 0.9 1.7 0.00 0.00 0.00 99 1013.7
20260904080228 82 66 0.9 2.6 0.00 0.00 0.00 99 1013.8
20260904075724 82 82 1.7 1.7 0.00 0.00 0.00 99 1013.7
20260904075219 82 120 0.9 1.7 0.00 0.00 0.00 99 1013.7
20260904074718 81 94 0.9 1.7 0.00 0.00 0.00 99 1013.6
20260904074212 82 48 0.9 1.7 0.00 0.00 0.00 99 1013.7
20260904073708 82 72 0.9 1.7 0.00 0.00 0.00 99 1013.6
20260904073204 82 69 0.9 1.7 0.00 0.00 0.00 99 1013.6
20260904072700 82 94 0.0 1.7 0.00 0.00 0.00 99 1013.7
20260904072154 82 83 0.9 1.7 0.00 0.00 0.00 99 1013.7
20260904071650 82 61 1.7 1.7 0.00 0.00 0.00 99 1013.8
20260904071145 82 74 0.9 1.7 0.00 0.00 0.00 99 1013.7
20260904070644 82 84 0.0 1.7 0.00 0.00 0.00 99 1013.8
20260904070144 82 73 1.7 1.7 0.00 0.00 0.00 99 1014.1
20260904065644 82 82 0.9 1.7 0.00 0.00 0.00 99 1013.8
20260904065142 82 75 0.9 1.7 0.00 0.00 0.00 99 1013.8
20260904064636 82 71 1.7 1.7 0.00 0.00 0.00 98 1014.0
20260904064136 82 80 0.9 1.7 0.00 0.00 0.00 98 1014.0
20260904063632 82 68 0.9 1.7 0.00 0.00 0.00 98 1013.9
20260904063128 82 73 0.9 1.7 0.00 0.00 0.00 98 1014.1
20260904062624 82 91 1.7 1.7 0.00 0.00 0.00 98 1013.9
20260904062119 82 77 0.9 1.7 0.00 0.00 0.00 98 1014.0
20260904061615 82 78 0.9 1.7 0.00 0.00 0.00 98 1014.0
20260904061111 82 75 0.9 1.7 0.00 0.00 0.00 98 1014.2
20260904060607 82 79 0.9 1.7 0.00 0.00 0.00 98 1014.1
20260904060103 82 64 0.9 1.7 0.00 0.00 0.00 98 1014.2
20260904055557 82 70 0.0 1.7 0.00 0.00 0.00 98 1014.2
20260904055053 82 70 1.7 1.7 0.00 0.00 0.00 98 1014.2
20260904054549 82 75 0.9 1.7 0.00 0.00 0.00 98 1014.2
20260904054044 82 69 1.7 1.7 0.00 0.00 0.00 98 1014.3
20260904053544 82 58 1.7 1.7 0.00 0.00 0.00 98 1014.3
20260904053039 82 69 0.0 1.7 0.00 0.00 0.00 98 1014.4
20260904052536 82 113 0.0 1.7 0.00 0.00 0.00 98 1014.5
20260904052031 82 83 1.7 1.7 0.00 0.00 0.00 98 1014.4
20260904051528 82 82 0.9 1.7 0.00 0.00 0.00 98 1014.4
20260904051026 82 55 0.9 1.7 0.00 0.00 0.00 98 1014.4
20260904050523 82 80 0.9 1.7 0.00 0.00 0.00 98 1014.6
20260904050019 82 82 0.9 1.7 0.00 0.00 0.00 98 1014.6
20260904045514 82 76 0.9 1.7 0.00 0.00 0.00 98 1014.6
20260904045008 83 87 0.9 1.7 0.00 0.00 0.00 98 1014.4
20260904044504 83 97 0.0 1.7 0.00 0.00 0.00 98 1014.5
20260904044000 83 94 0.9 1.7 0.00 0.00 0.00 98 1014.6
20260904043457 83 79 1.7 1.7 0.00 0.00 0.00 98 1014.7
20260904042951 83 77 1.7 2.6 0.00 0.00 0.00 97 1014.6
20260904042448 83 84 0.9 1.7 0.00 0.00 0.00 97 1014.8
20260904041942 82 89 0.9 1.7 0.00 0.00 0.00 97 1014.8
20260904041439 83 80 0.9 1.7 0.00 0.00 0.00 97 1014.9
20260904040935 83 69 0.9 1.7 0.00 0.00 0.00 97 1015.0
20260904040435 83 65 1.7 1.7 0.00 0.00 0.00 97 1014.9
20260904035931 83 79 0.0 1.7 0.00 0.02 0.02 97 1015.0
20260904035427 83 76 1.7 1.7 0.00 0.02 0.02 97 1014.8
20260904034926 83 78 1.7 1.7 0.00 0.02 0.02 97 1014.8
20260904034421 83 85 0.9 1.7 0.00 0.02 0.02 97 1014.9
20260904033917 83 71 1.7 1.7 0.00 0.02 0.02 96 1014.8
20260904033413 83 72 1.7 1.7 0.00 0.02 0.02 96 1014.9
20260904032909 83 91 0.9 1.7 0.00 0.02 0.02 96 1015.1
20260904032404 83 120 0.9 1.7 0.00 0.02 0.02 96 1015.0
20260904031858 83 101 1.7 1.7 0.00 0.02 0.02 96 1014.9
20260904031353 83 98 0.0 1.7 0.00 0.02 0.02 96 1014.9
20260904030849 83 101 0.9 1.7 0.00 0.02 0.02 95 1014.8
20260904030345 84 116 0.9 1.7 0.00 0.02 0.02 95 1015.1
20260904025840 84 109 0.0 1.7 0.00 0.02 0.02 95 1015.1
20260904025336 84 93 0.9 1.7 0.00 0.02 0.02 95 1015.2
20260904024836 84 94 0.9 1.7 0.00 0.02 0.02 94 1014.9
20260904024331 84 134 1.7 1.7 0.00 0.02 0.02 94 1015.1
20260904023827 84 67 0.9 1.7 0.00 0.02 0.02 94 1015.0
20260904023323 84 70 1.7 1.7 0.00 0.02 0.02 93 1015.1
20260904022822 84 105 0.9 1.7 0.00 0.02 0.02 93 1015.1
20260904022319 84 110 0.9 1.7 0.00 0.02 0.02 93 1015.1
20260904021816 84 92 0.9 0.9 0.00 0.02 0.02 93 1014.9
20260904021315 84 68 0.9 1.7 0.00 0.02 0.02 92 1015.2
20260904020811 84 84 0.9 1.7 0.00 0.02 0.02 91 1015.0
20260904020306 85 70 0.9 1.7 0.00 0.02 0.02 91 1014.9
20260904015804 85 48 0.0 1.7 0.00 0.02 0.02 90 1014.9
20260904015300 85 79 0.9 1.7 0.00 0.02 0.02 90 1014.8
20260904014758 85 82 0.9 0.9 0.00 0.02 0.02 89 1014.9
20260904014254 85 103 0.0 0.9 0.00 0.02 0.02 89 1014.8
20260904013749 85 63 0.9 0.9 0.00 0.02 0.02 89 1014.8
20260904013245 85 63 0.9 1.7 0.00 0.02 0.02 89 1014.7
20260904012741 85 145 0.0 0.9 0.00 0.02 0.02 88 1014.7
20260904012241 85 55 0.9 1.7 0.00 0.02 0.02 87 1014.6
20260904011740 85 70 0.9 0.9 0.00 0.02 0.02 87 1014.6
20260904011235 85 81 0.9 0.9 0.00 0.02 0.02 87 1014.6
20260904010730 85 66 0.0 0.9 0.00 0.02 0.02 87 1014.4
20260904010227 86 89 0.0 0.9 0.00 0.02 0.02 87 1014.3
20260904005722 85 116 0.0 0.9 0.00 0.02 0.02 87 1014.4
20260904005218 85 86 0.9 0.9 0.00 0.02 0.02 88 1014.4
20260904004718 85 73 0.9 1.7 0.00 0.02 0.02 89 1014.2
20260904004213 85 52 0.9 0.9 0.00 0.02 0.02 88 1014.2
20260904003708 85 69 0.0 0.9 0.00 0.02 0.02 89 1014.3
20260904003204 85 71 0.9 0.9 0.00 0.02 0.02 89 1014.1
20260904002700 85 67 0.9 0.9 0.00 0.02 0.02 90 1014.2
20260904002156 85 86 0.9 0.9 0.00 0.02 0.02 90 1013.9
20260904001650 85 127 0.9 1.7 0.00 0.02 0.02 90 1014.2
20260904001150 85 113 0.0 1.7 0.00 0.02 0.02 90 1014.2
20260904000645 85 123 1.7 1.7 0.00 0.02 0.02 89 1014.1
20260904000140 85 123 1.7 1.7 0.00 0.02 0.02 89 1014.1
20260903235639 86 103 0.0 0.9 0.00 0.02 0.02 88 1014.1
20260903235136 86 53 0.0 1.7 0.00 0.02 0.02 88 1014.0
20260903234630 86 45 1.7 1.7 0.00 0.02 0.02 87 1014.0
20260903234126 86 93 0.9 0.9 0.00 0.02 0.02 88 1013.9
20260903233622 86 68 0.9 1.7 0.00 0.02 0.02 88 1013.9
20260903233118 86 53 0.0 0.9 0.00 0.02 0.02 87 1014.0
20260903232612 86 59 0.9 0.9 0.00 0.02 0.02 87 1013.9
20260903232108 87 115 0.9 1.7 0.00 0.02 0.02 86 1013.8
20260903231602 87 127 0.9 0.9 0.00 0.02 0.02 85 1013.7
20260903231102 87 113 0.0 0.9 0.00 0.02 0.02 85 1013.7
20260903230559 87 65 0.9 1.7 0.00 0.02 0.02 85 1013.7
20260903230057 88 49 0.9 1.7 0.00 0.02 0.02 84 1013.7
20260903225554 88 77 0.9 1.7 0.00 0.02 0.02 83 1013.9
20260903225051 88 63 0.0 0.9 0.00 0.02 0.02 82 1014.0
20260903224547 88 75 0.0 0.9 0.00 0.02 0.02 81 1014.0
20260903224043 89 62 0.0 0.9 0.00 0.02 0.02 81 1014.1
20260903223542 89 69 0.0 0.9 0.00 0.02 0.02 80 1014.0
20260903223041 89 35 0.9 1.7 0.00 0.02 0.02 80 1013.8
20260903222537 89 55 0.9 0.9 0.00 0.02 0.02 80 1013.7
20260903222035 89 104 0.0 0.9 0.00 0.02 0.02 80 1013.8
20260903221531 89 69 0.0 0.9 0.00 0.02 0.02 78 1013.6
20260903221028 89 46 1.7 1.7 0.00 0.02 0.02 79 1013.7
20260903220527 89 72 0.0 0.9 0.00 0.02 0.02 78 1013.5
20260903220022 89 126 0.0 0.9 0.00 0.02 0.02 79 1013.6
20260903215521 89 73 0.0 1.7 0.00 0.02 0.02 79 1013.4
20260903215022 89 39 1.7 2.6 0.00 0.02 0.02 77 1013.2
20260903214521 89 52 0.9 1.7 0.00 0.02 0.02 78 1013.4
20260903214021 90 41 1.7 1.7 0.00 0.02 0.02 77 1013.4
20260903213517 90 20 0.9 1.7 0.00 0.02 0.02 78 1013.0
20260903213012 89 53 1.7 1.7 0.00 0.02 0.02 79 1012.9
20260903212509 90 32 1.7 2.6 0.00 0.02 0.02 79 1012.9
20260903212009 90 104 0.0 0.9 0.00 0.02 0.02 79 1012.9
20260903211504 90 38 0.9 1.7 0.00 0.02 0.02 77 1012.8
20260903211001 91 18 0.9 2.6 0.00 0.02 0.02 76 1013.0
20260903210500 92 322 0.0 1.7 0.00 0.02 0.02 76 1013.0
20260903205955 92 1 0.9 2.6 0.00 0.02 0.02 75 1013.0
20260903205450 93 16 0.0 2.6 0.00 0.02 0.02 73 1013.1
20260903204944 93 196 0.0 1.7 0.00 0.02 0.02 72 1013.2
20260903204441 94 19 0.0 1.7 0.00 0.02 0.02 68 1013.4
20260903203936 94 30 1.7 2.6 0.00 0.02 0.02 67 1013.3
20260903203431 94 41 1.7 2.6 0.00 0.02 0.02 67 1012.8
20260903202931 94 160 0.9 1.7 0.00 0.02 0.02 69 1012.7
20260903202427 95 84 1.7 2.6 0.00 0.02 0.02 66 1012.8
20260903201926 94 61 1.7 4.3 0.00 0.02 0.02 67 1012.9
20260903201422 94 122 1.7 1.7 0.00 0.02 0.02 70 1012.7
20260903200921 95 116 2.6 3.5 0.00 0.02 0.02 66 1012.8
20260903200416 95 3 1.7 3.5 0.00 0.02 0.02 67 1013.2
20260903195911 95 49 0.0 4.3 0.00 0.02 0.02 67 1013.2
20260903195409 95 32 1.7 2.6 0.00 0.02 0.02 69 1012.9
20260903194908 95 140 0.0 2.6 0.00 0.02 0.02 68 1012.9
20260903194403 95 93 0.9 2.6 0.00 0.02 0.02 70 1012.9
20260903193858 95 74 1.7 4.3 0.00 0.02 0.02 68 1013.1
20260903193355 95 102 4.3 4.3 0.00 0.02 0.02 69 1013.1
20260903192850 94 54 1.7 1.7 0.00 0.02 0.02 77 1013.2
20260903192346 93 76 2.6 4.3 0.00 0.02 0.02 72 1013.5
20260903191842 92 102 0.9 2.6 0.00 0.02 0.02 74 1013.3
20260903191338 93 255 0.0 3.5 0.00 0.02 0.02 74 1013.1
20260903190837 94 41 0.9 3.5 0.00 0.02 0.02 71 1013.0
20260903190332 95 99 4.3 4.3 0.00 0.02 0.02 70 1013.0
20260903185831 95 143 2.6 3.5 0.00 0.02 0.02 67 1013.1
20260903185326 96 112 0.9 4.3 0.00 0.02 0.02 65 1013.2
20260903184823 99 130 0.9 3.5 0.00 0.02 0.02 63 1013.1